Date String (YYYY-MM-DD hh:mm:ss) UTC,Instrument flags,absolute air pressure of the measurement (hPa),sample flow rate (lpm),inlet stack bypass flow (lpm),air temperature of the measurement (°C),ambient temperature measured by the external sensor (°C),aerosol sample conditioner tube jacket temperature (°C),OPC LED temperature (°C),internal box temperature (°C),relative humidity of the measurement (%),span deviation,mass concentration of particles derived from Lorenz-Mie calculation of OPC scattering (μg/m³),mass concentration of particles derived from Lorenz-Mie calculation of OPC scattering (μg/m³),mass concentration of particles derived from Lorenz-Mie calculation of OPC scattering (μg/m³)
DateTimeUTC,F1_M11,P_M11,Q1_M11,Q2_M11,T1_M11,T2_M11,T3_M11,T4_M11,T5_M11,U1_M11,ZSPAN_M11,X2_M11,X0_M11,X1_M11
2023-12-20 20:00:00,SystemResetWarning,0829.0,5.01,000.00,026.6,026.0,000.0,034.8,028.0,10.8,0000.0,0001.85,0007.25,0001.34
2023-12-20 20:01:00,SystemResetWarning,0829.0,5.00,000.00,026.6,026.0,000.0,034.8,028.1,10.9,0000.0,0001.91,0007.92,0001.38
2023-12-20 20:02:00,SystemResetWarning,0828.9,5.00,000.00,026.7,026.0,000.0,034.8,028.1,11.0,0000.0,0002.00,0007.50,0001.41
2023-12-20 20:03:00,SystemResetWarning,0828.9,5.00,000.00,026.7,026.0,000.0,034.8,028.1,10.9,0000.0,0002.03,0007.02,0001.46
2023-12-20 20:04:00,SystemResetWarning,0828.9,5.00,000.00,026.7,026.0,000.0,034.8,028.1,11.0,0000.0,0002.18,0007.31,0001.53
2023-12-20 20:05:00,SystemResetWarning,0828.9,4.99,000.00,026.7,026.0,000.0,034.8,028.1,10.9,0000.0,0002.29,0007.28,0001.60
2023-12-20 20:06:00,SystemResetWarning,0829.0,4.99,000.00,026.7,026.0,000.0,034.9,028.1,10.9,0000.0,0002.40,0007.30,0001.66
2023-12-20 20:07:00,SystemResetWarning,0828.9,4.99,000.00,026.7,026.0,000.0,034.9,028.1,10.9,0000.0,0002.49,0007.37,0001.71
2023-12-20 20:08:00,SystemResetWarning,0828.9,5.01,000.00,026.7,026.0,000.0,034.9,028.1,11.0,0000.0,0002.54,0007.29,0001.76
2023-12-20 20:09:00,SystemResetWarning,0828.9,5.00,000.00,026.7,026.1,000.0,034.9,028.2,10.9,0000.0,0002.59,0006.86,0001.82
2023-12-20 20:10:00,SystemResetWarning,0828.9,5.00,000.00,026.7,026.1,000.0,034.9,028.2,10.9,0000.0,0002.67,0006.39,0001.90
2023-12-20 20:11:00,SystemResetWarning,0828.9,5.00,000.00,026.8,026.1,000.0,034.9,028.2,11.0,0000.0,0002.75,0006.21,0001.97
2023-12-20 20:12:00,SystemResetWarning,0828.9,5.00,000.00,026.8,026.1,000.0,034.9,028.2,11.0,0000.0,0002.86,0005.40,0002.04
2023-12-20 20:13:00,SystemResetWarning,0828.9,5.00,000.00,026.8,026.1,000.0,034.9,028.2,11.0,0000.0,0002.90,0005.21,0002.11
2023-12-20 20:14:00,SystemResetWarning,0828.9,5.00,000.00,026.8,026.1,000.0,035.0,028.2,10.9,0000.0,0003.04,0005.55,0002.20
2023-12-20 20:15:00,SystemResetWarning,0828.9,5.00,000.00,026.8,026.1,000.0,035.0,028.2,11.0,0000.0,0003.12,0006.23,0002.27
2023-12-20 20:16:00,SystemResetWarning,0828.9,5.00,000.00,026.8,026.1,000.0,035.0,028.2,11.0,0000.0,0003.11,0006.99,0002.34
2023-12-20 20:17:00,SystemResetWarning,0828.9,5.00,000.00,026.8,026.1,000.0,035.0,028.2,11.0,0000.0,0003.15,0007.22,0002.39
2023-12-20 20:18:00,SystemResetWarning,0829.0,4.99,000.00,026.8,025.4,000.0,035.0,028.3,10.9,0000.0,0003.18,0007.36,0002.46
2023-12-20 20:19:00,SystemResetWarning,0828.9,5.00,000.00,026.8,023.3,000.0,035.0,028.1,10.9,0000.0,0003.20,0007.42,0002.51
2023-12-20 20:20:00,SystemResetWarning,0829.0,5.01,000.00,026.7,022.3,000.0,034.9,027.9,10.9,0000.0,0003.26,0007.50,0002.58
2023-12-20 20:21:00,SystemResetWarning,0828.9,5.01,000.00,026.5,022.5,000.0,034.8,027.3,11.0,0000.0,0003.27,0008.00,0002.63
2023-12-20 20:22:00,SystemResetWarning,0828.9,5.00,000.00,026.3,022.9,000.0,034.7,027.1,11.1,0000.0,0003.30,0008.12,0002.66
2023-12-20 20:23:00,SystemResetWarning,0828.8,5.00,000.00,026.2,023.3,000.0,034.7,027.1,11.2,0000.0,0003.31,0008.30,0002.72
2023-12-20 20:24:00,SystemResetWarning,0829.0,5.00,000.00,026.2,023.7,000.0,034.6,027.2,11.1,0000.0,0003.36,0008.50,0002.79
2023-12-20 20:25:00,SystemResetWarning,0829.0,5.00,000.00,026.2,024.0,000.0,034.6,027.2,11.3,0000.0,0003.37,0008.93,0002.83
2023-12-20 20:26:00,SystemResetWarning,0829.0,4.99,000.00,026.1,024.3,000.0,034.6,027.3,11.3,0000.0,0003.41,0008.98,0002.88
2023-12-20 20:27:00,SystemResetWarning,0829.0,5.00,000.00,026.2,024.5,000.0,034.5,027.4,11.2,0000.0,0003.44,0008.74,0002.92
2023-12-20 20:28:00,SystemResetWarning,0829.0,5.00,000.00,026.2,024.7,000.0,034.5,027.5,11.4,0000.0,0003.48,0009.30,0002.98
2023-12-20 20:29:00,SystemResetWarning,0829.0,5.01,000.00,026.2,024.8,000.0,034.5,027.5,11.2,0000.0,0003.53,0010.22,0003.04
2023-12-20 20:30:00,SystemResetWarning,0829.0,4.99,000.00,026.2,025.0,000.0,034.5,027.5,11.1,0000.0,0003.62,0010.37,0003.10
2023-12-20 20:31:00,SystemResetWarning,0829.0,4.99,000.00,026.2,025.1,000.0,034.5,027.6,10.9,0000.0,0003.66,0010.98,0003.14
2023-12-20 20:32:00,SystemResetWarning,0829.0,4.99,000.00,026.2,025.2,000.0,034.5,027.6,11.0,0000.0,0003.68,0010.85,0003.17
2023-12-20 20:33:00,SystemResetWarning,0829.0,5.00,000.00,026.3,025.3,000.0,034.5,027.7,11.1,0000.0,0003.77,0011.66,0003.22
2023-12-20 20:34:00,SystemResetWarning,0829.0,5.00,000.00,026.3,025.3,000.0,034.5,027.7,11.1,0000.0,0003.87,0011.60,0003.26
2023-12-20 20:35:00,SystemResetWarning,0828.9,5.01,000.00,026.3,025.4,000.0,034.5,027.8,11.0,0000.0,0003.95,0011.62,0003.30
2023-12-20 20:36:00,SystemResetWarning,0829.0,5.00,000.00,026.4,025.5,000.0,034.5,027.8,10.8,0000.0,0004.02,0011.70,0003.35
2023-12-20 20:37:00,SystemResetWarning,0829.0,5.00,000.00,026.4,025.5,000.0,034.5,027.8,10.8,0000.0,0004.02,0011.54,0003.38
2023-12-20 20:38:00,SystemResetWarning,0828.9,5.01,000.00,026.4,025.6,000.0,034.5,027.8,10.7,0000.0,0004.10,0011.88,0003.42
2023-12-20 20:39:00,SystemResetWarning,0829.0,5.00,000.00,026.4,025.6,000.0,034.6,027.9,10.6,0000.0,0004.17,0011.87,0003.46
2023-12-20 20:40:00,SystemResetWarning,0829.0,5.00,000.00,026.4,025.6,000.0,034.6,027.9,10.7,0000.0,0004.23,0011.13,0003.51
2023-12-20 20:41:00,SystemResetWarning,0829.0,5.00,000.00,026.4,025.7,000.0,034.6,027.9,10.8,0000.0,0004.25,0012.41,0003.53
2023-12-20 20:42:00,SystemResetWarning,0828.9,4.99,000.00,026.5,025.7,000.0,034.6,027.9,10.6,0000.0,0004.26,0012.76,0003.53
2023-12-20 20:43:00,SystemResetWarning,0829.0,5.00,000.00,026.5,025.7,000.0,034.6,028.0,10.7,0000.0,0004.27,0013.02,0003.53
2023-12-20 20:44:00,SystemResetWarning,0829.0,5.00,000.00,026.5,025.8,000.0,034.6,028.0,10.6,0000.0,0004.24,0012.92,0003.53
2023-12-20 20:45:00,SystemResetWarning,0829.0,5.00,000.00,026.5,025.8,000.0,034.7,028.0,10.7,0000.0,0004.22,0013.40,0003.53
2023-12-20 20:46:00,SystemResetWarning,0828.9,5.00,000.00,026.6,025.8,000.0,034.7,028.0,10.8,0000.0,0004.17,0013.32,0003.53
2023-12-20 20:47:00,SystemResetWarning,0829.0,5.00,000.00,026.6,025.8,000.0,034.7,028.1,10.6,0000.0,0004.14,0013.64,0003.52
2023-12-20 20:48:00,SystemResetWarning,0829.0,5.00,000.00,026.6,024.6,000.0,034.7,028.1,10.6,0000.0,0004.17,0013.96,0003.52
2023-12-20 20:49:00,SystemResetWarning,0828.9,5.00,000.00,026.5,022.5,000.0,034.7,027.7,10.6,0000.0,0004.18,0013.74,0003.53
2023-12-20 20:50:00,SystemResetWarning,0828.8,5.01,000.00,026.4,021.8,000.0,034.6,027.5,10.9,0000.0,0004.17,0014.28,0003.53
2023-12-20 20:51:00,SystemResetWarning,0828.8,5.00,000.00,026.2,022.1,000.0,034.5,026.9,10.9,0000.0,0004.15,0015.63,0003.53
2023-12-20 20:52:00,SystemResetWarning,0828.8,4.99,000.00,026.0,022.6,000.0,034.5,026.8,10.9,0000.0,0004.16,0014.42,0003.55
2023-12-20 20:53:00,SystemResetWarning,0828.8,5.00,000.00,026.0,023.0,000.0,034.4,026.9,11.0,0000.0,0004.19,0013.82,0003.58
2023-12-20 20:54:00,SystemResetWarning,0828.8,5.00,000.00,025.9,023.4,000.0,034.4,027.0,11.2,0000.0,0004.27,0014.30,0003.62
2023-12-20 20:55:00,SystemResetWarning,0828.8,4.98,000.00,025.9,023.7,000.0,034.3,027.1,11.3,0000.0,0004.31,0013.94,0003.65
2023-12-20 20:56:00,SystemResetWarning,0828.7,5.00,000.00,025.9,024.0,000.0,034.3,027.2,11.3,0000.0,0004.34,0014.15,0003.67
2023-12-20 20:57:00,SystemResetWarning,0828.8,5.01,000.00,025.9,024.3,000.0,034.3,027.2,11.3,0000.0,0004.38,0015.28,0003.71
2023-12-20 20:58:00,SystemResetWarning,0828.7,5.01,000.00,026.0,024.5,000.0,034.2,027.3,11.3,0000.0,0004.42,0014.71,0003.74
2023-12-20 20:59:00,SystemResetWarning,0828.8,4.99,000.00,026.0,024.6,000.0,034.2,027.3,11.3,0000.0,0004.42,0015.20,0003.76
